This is the latest recevied weather packets stored in our database for station/object IK2ILW-4. If no packets are shown the sender has not sent any weather packets the latest 10 day(s).
| Time | Temp. | Humidity | Pressure | Rain* | Wind** | Luminosity | Snow |
|---|---|---|---|---|---|---|---|
| 1787757768 | 20° C | 80% | 1022.4 hPa | 0.51 mm | - | 148 W/m² | - |
| 1787757455 | 20° C | 80% | 1022.4 hPa | 0.51 mm | - | 185 W/m² | - |
| 1787757165 | 20° C | 79% | 1022.9 hPa | 0.51 mm | - | 193 W/m² | - |
| 1787756862 | 20.56° C | 80% | 1022.9 hPa | 0.51 mm | - | 174 W/m² | - |
| 1787756570 | 20° C | 80% | 1022.9 hPa | 0.51 mm | - | 229 W/m² | - |
| 1787756255 | 20.56° C | 80% | 1022.9 hPa | 0.51 mm | - | 197 W/m² | - |
| 1787755966 | 20.56° C | 79% | 1022.9 hPa | 0.51 mm | - | 141 W/m² | - |
| 1787755656 | 20.56° C | 78% | 1022.9 hPa | 0.51 mm | - | 148 W/m² | - |
| 1787755370 | 20.56° C | 78% | 1022.9 hPa | 0.51 mm | - | 171 W/m² | - |
| 1787755059 | 20.56° C | 78% | 1022.9 hPa | 0.51 mm | - | 253 W/m² | - |
| 1787754769 | 20.56° C | 77% | 1022.9 hPa | 0.51 mm | - | 241 W/m² | - |
| 1787754467 | 20.56° C | 77% | 1022.9 hPa | 0.51 mm | - | 206 W/m² | - |
| 1787754161 | 20.56° C | 76% | 1022.9 hPa | 0.51 mm | - | 193 W/m² | - |
| 1787753869 | 20.56° C | 77% | 1022.9 hPa | 0.51 mm | - | 185 W/m² | - |
| 1787753567 | 20.56° C | 77% | 1022.8 hPa | 0.51 mm | - | 181 W/m² | - |
| 1787753265 | 21.11° C | 76% | 1022.8 hPa | 0.51 mm | - | 176 W/m² | - |
| 1787752973 | 21.11° C | 76% | 1022.8 hPa | 0.51 mm | - | 186 W/m² | - |
| 1787752664 | 21.11° C | 75% | 1022.8 hPa | 0.51 mm | - | 172 W/m² | - |
| 1787752361 | 21.11° C | 75% | 1022.8 hPa | 0.51 mm | - | 214 W/m² | - |
| 1787752052 | 21.11° C | 75% | 1022.8 hPa | 0.51 mm | - | 200 W/m² | - |
| 1787751770 | 21.11° C | 75% | 1022.8 hPa | 0.51 mm | - | 185 W/m² | - |
| 1787751458 | 21.67° C | 78% | 1022.8 hPa | 0.51 mm | - | 169 W/m² | - |
| 1787751170 | 21.11° C | 77% | 1022.8 hPa | 0.51 mm | - | 301 W/m² | - |
| 1787750862 | 20.56° C | 79% | 1022.8 hPa | 0.51 mm | - | 213 W/m² | - |
| 1787750557 | 21.11° C | 79% | 1022.8 hPa | 0.51 mm | - | 258 W/m² | - |
* Rain since midnight (hover to see other rain measurements)
** Current wind speed in m/s (hover to see current wind gust speed)